Date,TemperatureHighF,TemperatureAvgF,TemperatureLowF,DewpointHighF,DewpointAvgF,DewpointLowF,HumidityHigh,HumidityAvg,HumidityLow,PressureMaxIn,PressureMinIn,WindSpeedMaxMPH,WindSpeedAvgMPH,GustSpeedMaxMPH,PrecipitationSumIn
2013-1-1,32.0,24.5,19.6,31.8,22.6,15.1,99,92,81,30.08,29.91,11,6,13,0.01
2013-1-2,38.1,27.5,12.9,23.2,15.0,11.8,97,63,36,30.08,29.99,8,4,9,0.00
2013-1-3,41.7,30.9,21.4,28.3,23.7,19.7,96,76,49,30.23,30.07,8,4,8,0.00
2013-1-4,45.9,34.9,21.9,27.7,22.2,19.0,99,63,36,30.28,30.15,9,5,13,0.00
2013-1-5,43.0,38.1,27.1,32.4,28.4,21.1,86,68,60,30.15,29.98,13,7,17,0.00
2013-1-6,38.5,31.1,26.4,30.9,24.8,22.3,91,78,56,30.17,30.00,14,8,19,0.00
2013-1-7,51.4,34.9,19.8,24.5,20.7,15.4,85,60,27,30.19,29.97,12,6,12,0.00
2013-1-8,57.0,42.3,27.3,45.1,28.4,19.3,99,63,24,30.05,29.91,11,6,11,0.01
2013-1-9,56.5,47.5,40.1,47.6,40.7,33.4,99,79,52,30.25,30.06,9,3,9,0.02
2013-1-10,52.5,46.6,39.7,52.2,45.0,34.0,99,95,61,30.19,29.68,14,6,14,0.17
2013-1-11,66.2,56.1,44.6,50.9,47.4,44.3,99,75,51,29.72,29.61,15,10,20,0.01
2013-1-12,55.6,42.6,29.1,49.3,35.9,28.2,99,79,42,29.84,29.67,14,5,16,0.25
2013-1-13,26.2,21.6,19.9,26.0,19.7,17.8,99,92,87,30.08,29.80,0,0,0,0.00
2013-1-14,29.7,20.8,12.4,22.0,15.9,10.7,98,82,66,30.30,30.19,0,0,0,0.00
2013-1-15,27.1,21.5,12.4,22.5,18.6,11.6,98,89,70,30.18,30.03,0,0,0,0.00
2013-1-16,42.4,28.2,14.2,24.9,19.5,13.7,99,73,41,30.00,29.91,13,2,13,0.13
2013-1-17,43.2,33.1,24.4,32.0,25.6,20.9,99,75,48,30.31,30.04,11,5,11,0.00
2013-1-18,58.8,44.3,23.0,29.7,24.2,17.6,91,51,21,30.32,30.04,15,8,21,0.01
2013-1-19,65.1,55.8,42.1,37.1,31.2,27.8,68,41,25,30.04,29.86,18,12,22,0.01
2013-1-20,50.0,39.6,28.6,31.0,14.1,2.4,76,39,17,30.14,30.05,8,5,9,0.00
2013-1-21,30.9,22.7,16.5,14.1,9.7,5.1,77,58,40,30.21,30.13,10,5,10,0.00
2013-1-22,35.1,22.9,15.4,12.5,6.6,1.8,70,50,32,30.23,30.09,7,3,7,0.00
2013-1-23,56.1,35.5,18.9,35.2,24.2,12.4,87,65,43,30.18,29.99,12,5,12,0.00
2013-1-24,32.5,28.2,16.9,19.7,8.1,4.3,72,44,30,30.29,30.00,12,8,15,0.00
2013-1-25,46.8,36.9,26.4,26.3,23.4,14.8,94,61,38,30.09,29.94,9,5,13,0.00
2013-1-26,59.9,46.6,31.5,32.2,21.0,11.2,75,40,16,30.16,30.03,12,4,14,0.00
2013-1-27,51.8,45.3,37.6,50.8,42.7,27.0,99,91,56,30.02,29.76,17,11,24,0.08
2013-1-28,75.0,64.8,56.3,61.3,58.6,55.2,99,82,55,29.82,29.70,17,11,17,0.00
2013-1-29,67.8,57.7,52.5,61.5,56.2,52.3,99,95,80,29.69,29.37,17,7,17,1.69
2013-1-30,50.0,32.7,25.3,49.7,29.8,18.2,99,89,74,29.83,29.28,29,10,29,0.06
2013-1-31,37.0,23.3,9.1,27.7,16.1,0.9,99,74,55,30.25,29.81,17,8,17,0.00
2013-2-1,31.6,22.9,3.7,14.6,8.2,-0.4,86,55,32,30.30,30.06,8,4,11,0.00
2013-2-2,48.4,42.6,25.9,31.9,28.0,17.1,75,57,42,30.03,29.96,15,8,24,0.00
2013-2-3,54.9,42.7,33.8,30.8,19.0,7.3,79,41,16,30.09,29.91,19,8,23,0.00
2013-2-4,62.2,47.5,28.0,37.2,28.5,22.1,92,50,27,29.81,29.67,16,9,16,0.00
2013-2-5,62.4,42.8,24.4,36.3,27.0,21.7,99,61,22,29.95,29.77,15,4,15,0.00
2013-2-6,60.8,45.2,30.0,34.8,30.0,26.9,92,59,29,30.02,29.85,15,6,15,0.00
2013-2-7,54.7,45.8,38.8,51.3,41.7,34.6,99,86,66,29.94,29.73,14,6,14,0.43
2013-2-8,42.3,34.0,27.7,37.0,30.5,26.2,99,87,67,30.17,29.95,11,5,11,0.00
2013-2-9,46.9,37.9,29.3,36.8,30.3,25.6,99,76,49,30.10,29.74,14,9,19,0.26
2013-2-10,63.0,52.9,37.4,55.3,39.5,20.4,99,69,22,29.74,29.46,22,14,32,0.48
2013-2-11,52.2,50.1,48.6,23.8,21.6,19.9,37,32,28,29.96,29.94,10,7,11,0.60
2013-2-12,45.1,35.3,27.1,33.0,27.4,22.3,99,75,48,30.00,29.81,8,3,8,0.11
2013-2-13,46.9,36.8,30.4,36.9,33.0,30.1,99,87,65,29.81,29.73,18,5,18,0.50
2013-2-14,56.3,44.2,35.8,33.7,29.3,22.7,75,57,31,29.96,29.73,14,7,14,0.00
2013-2-15,41.5,34.3,24.4,30.0,16.1,1.1,79,50,18,30.14,29.97,14,7,14,0.00
2013-2-16,39.0,31.3,19.0,21.1,15.3,8.3,95,54,31,30.13,30.00,11,5,14,0.00
2013-2-17,64.2,50.2,28.4,25.1,19.6,15.4,65,32,16,29.97,29.74,14,7,17,0.00
2013-2-18,56.8,44.9,39.6,50.3,39.6,31.6,99,82,61,29.69,29.42,19,13,25,0.15
2013-2-19,27.3,26.6,25.9,19.8,18.8,18.1,73,72,72,29.93,29.91,12,9,12,0.00
2013-2-20,31.3,25.1,19.9,11.9,7.3,4.3,58,47,36,30.18,30.01,9,4,9,0.00
2013-2-21,31.8,28.0,25.0,31.6,23.8,12.1,99,86,51,30.02,29.59,17,2,17,0.00
2013-2-22,32.7,27.2,21.9,32.5,23.6,20.3,99,86,69,29.91,29.64,0,0,0,0.13
2013-2-23,41.2,32.5,16.5,24.1,20.3,15.9,98,62,39,29.92,29.81,8,2,11,0.02
2013-2-24,54.1,43.0,19.9,31.8,26.2,17.9,96,55,35,29.91,29.78,10,6,14,0.00
2013-2-25,46.8,36.2,29.1,34.1,28.1,21.7,99,75,38,29.81,29.31,17,8,17,0.66
2013-2-26,34.3,32.4,30.9,33.7,32.1,30.7,99,99,96,29.63,29.19,13,6,13,0.27
2013-2-27,34.2,31.0,29.5,30.8,29.2,26.5,99,93,86,29.83,29.63,19,10,19,0.01
2013-2-28,32.0,29.9,28.6,26.9,26.4,25.6,91,87,81,29.99,29.81,15,8,15,0.00
2013-3-1,29.8,27.8,25.9,26.1,24.6,21.2,98,88,70,30.06,29.96,11,7,11,0.00
2013-3-2,34.9,29.8,22.1,23.9,17.1,14.7,95,60,46,30.13,30.06,11,6,11,0.06
2013-3-3,51.3,39.8,15.4,24.2,19.5,13.9,95,49,27,30.04,29.77,13,6,16,0.00
2013-3-4,35.8,35.8,35.8,26.6,26.6,26.3,69,69,69,29.62,29.61,14,9,21,0.00
2013-3-5,44.2,36.1,32.0,42.1,26.2,18.8,99,69,46,29.97,29.67,18,14,21,0.15
2013-3-6,44.8,31.6,23.7,20.9,19.0,17.4,84,61,35,30.23,30.09,14,6,14,0.00
2013-3-7,61.9,41.6,23.7,30.2,23.0,13.8,89,55,16,30.16,30.03,12,5,12,0.00
2013-3-8,59.9,51.5,33.3,33.1,30.6,27.8,90,46,31,30.15,29.98,12,8,17,0.00
2013-3-9,72.9,60.2,41.5,53.7,41.9,25.6,99,57,20,29.87,29.60,18,11,25,0.66
2013-3-10,62.4,52.0,41.7,55.3,50.2,40.8,99,94,55,29.65,29.50,18,8,27,0.87
2013-3-11,42.4,31.3,26.6,31.8,27.2,23.7,99,86,51,29.86,29.67,22,10,22,0.01
2013-3-12,52.7,38.0,26.1,25.9,21.9,14.9,87,56,22,30.13,29.85,17,7,17,0.00
2013-3-13,50.9,35.6,25.0,22.8,17.1,3.3,80,52,14,30.29,30.13,10,6,10,0.00
2013-3-14,73.4,50.5,27.1,39.0,26.3,17.8,76,45,16,30.22,29.93,19,7,19,0.00
2013-3-15,83.5,65.6,50.4,44.2,38.7,28.9,70,42,14,29.94,29.60,15,8,15,0.00
2013-3-16,64.8,51.4,41.7,46.7,41.1,36.0,81,68,42,29.82,29.59,13,9,18,0.00
2013-3-17,36.7,35.1,33.6,36.4,34.8,33.4,99,99,99,29.87,29.61,12,8,16,1.68
2013-3-18,54.5,44.4,34.9,39.4,33.1,22.4,99,71,34,29.77,29.54,14,8,15,0.00
2013-3-19,39.4,31.1,25.0,24.7,20.8,14.6,81,66,36,30.05,29.90,7,3,7,0.00
2013-3-23,46.8,43.1,34.9,40.7,35.6,32.7,99,75,64,29.82,29.64,8,5,11,0.09
2013-3-24,37.4,32.1,28.4,37.1,31.9,28.2,99,99,96,29.73,29.44,16,10,24,0.20
2013-3-25,33.1,27.4,22.5,29.1,24.7,21.0,99,90,76,30.10,29.82,14,9,14,0.00
2013-3-26,45.9,32.1,20.3,26.8,22.6,18.3,99,72,33,30.22,30.10,8,5,8,0.00
2013-3-27,58.3,40.2,21.0,30.2,21.0,8.3,99,56,15,30.19,30.06,11,4,11,0.00
2013-3-28,70.2,54.3,41.4,41.6,34.6,27.7,89,51,23,30.11,29.99,10,5,13,0.04
2013-3-29,69.6,57.3,45.5,56.4,48.2,36.5,99,75,40,30.06,30.00,11,3,11,0.46
2013-3-30,60.4,52.4,45.0,52.7,49.5,43.3,99,90,72,30.00,29.75,15,6,18,0.19
2013-3-31,73.4,62.0,46.4,55.7,40.5,25.5,99,53,20,29.82,29.74,12,6,16,0.24
2013-4-1,53.1,46.6,37.2,36.8,23.9,13.3,80,44,24,30.05,29.82,12,7,12,0.00
2013-4-2,49.6,38.2,32.7,23.3,18.8,12.7,67,47,23,30.16,30.07,8,4,8,0.00
2013-4-3,57.6,42.9,28.8,20.5,13.9,0.9,61,36,10,30.17,30.04,13,5,13,0.00
2013-4-4,59.2,46.2,35.2,25.6,19.8,10.6,62,38,16,30.04,29.91,11,4,11,0.00
2013-4-5,78.6,56.8,39.4,33.9,23.9,12.4,56,34,10,30.04,29.85,7,4,7,0.00
2013-4-6,79.9,65.8,50.0,43.5,34.6,20.0,54,34,12,29.84,29.62,20,12,30,0.01
2013-4-7,86.5,72.5,53.1,54.5,45.1,31.0,82,43,15,29.78,29.64,11,6,14,0.00
2013-4-8,80.6,66.5,56.1,58.6,55.9,53.4,98,72,39,29.69,29.61,13,7,13,0.01
2013-4-9,78.4,67.5,59.4,62.4,58.3,55.8,93,73,53,29.73,29.63,14,7,14,0.00
2013-4-10,69.3,58.9,40.5,64.7,56.6,40.2,99,92,79,29.69,29.50,24,7,24,0.87
2013-4-11,48.6,40.9,34.5,40.4,31.9,27.0,99,72,48,29.65,29.58,22,10,22,0.05
2013-4-12,55.8,44.2,34.0,32.0,26.7,22.4,86,52,34,29.88,29.62,18,11,24,0.00
2013-4-13,79.0,60.5,34.2,37.7,30.0,19.8,91,39,14,29.93,29.69,11,5,14,0.00
2013-4-14,84.9,74.4,51.3,48.8,38.1,24.6,77,31,14,29.70,29.41,20,14,26,0.07
2013-4-15,80.1,58.8,50.2,63.3,53.3,41.5,99,83,56,29.76,29.58,12,6,12,0.00
2013-4-16,49.8,46.2,44.4,49.6,45.9,44.2,99,99,94,29.93,29.77,16,8,16,0.02
2013-4-17,87.6,67.8,45.7,72.1,57.4,45.4,99,74,42,29.89,29.53,22,10,22,0.01
2013-4-18,72.5,49.8,39.9,65.3,45.6,33.0,99,86,76,29.71,29.43,23,12,23,1.61
2013-4-19,55.8,45.3,34.0,27.5,20.2,9.4,71,41,17,29.94,29.75,20,13,27,0.05
2013-4-20,69.1,54.2,32.5,32.5,23.7,13.3,75,35,13,30.10,29.94,7,4,11,0.00
2013-4-21,75.7,62.6,44.4,38.4,30.1,16.8,76,34,12,30.17,30.02,14,8,17,0.00
2013-4-22,76.6,59.7,43.9,41.2,31.8,14.0,73,42,10,30.07,29.80,17,7,17,0.00
2013-4-23,58.6,47.2,35.8,54.0,43.3,35.5,99,88,55,29.92,29.75,11,7,11,0.73
2013-4-24,61.2,43.6,34.0,35.7,29.1,16.5,99,65,18,30.13,29.91,11,6,11,0.01
2013-4-25,75.6,61.8,34.0,36.4,23.4,12.7,77,27,10,30.20,30.09,14,6,18,0.00
2013-4-26,51.4,47.1,45.9,48.8,46.1,42.2,99,96,72,30.21,30.03,14,6,19,1.13
2013-4-27,54.1,50.0,46.0,53.9,49.8,45.8,99,99,99,30.05,29.86,8,4,10,0.47
2013-4-28,77.2,57.8,48.6,51.0,49.0,43.8,99,77,31,29.88,29.78,9,5,13,0.01
2013-4-29,93.6,70.8,50.0,58.6,52.5,47.0,99,63,22,29.78,29.63,14,7,15,0.00
2013-4-30,90.7,74.8,57.9,59.6,46.9,25.3,95,47,10,29.79,29.66,14,7,14,0.00
2013-5-1,88.0,71.8,54.1,60.0,54.6,49.5,90,59,30,29.95,29.79,11,4,11,0.00
2013-5-2,64.9,49.5,36.1,60.4,47.2,35.9,99,92,81,30.08,29.92,11,6,11,0.09
2013-5-3,36.9,34.2,32.5,36.1,33.9,32.3,99,99,95,30.02,29.77,11,7,14,0.48
2013-5-4,50.9,43.5,33.1,41.1,36.4,32.8,99,77,53,29.85,29.69,7,3,8,0.54
2013-5-5,59.0,50.3,38.8,49.7,44.4,37.8,99,81,66,29.89,29.81,10,6,12,0.00
2013-5-6,70.7,61.7,52.2,56.7,52.7,49.0,99,75,48,29.90,29.82,11,8,11,0.00
2013-5-7,85.5,67.4,53.4,55.0,47.8,35.8,95,58,18,29.93,29.85,10,4,10,0.00
2013-5-8,82.8,64.7,50.5,60.1,53.4,45.2,99,71,28,29.93,29.82,10,3,10,0.01
2013-5-9,85.5,67.8,59.0,63.4,58.1,53.4,99,75,34,29.85,29.75,12,6,12,0.22
2013-5-10,70.3,62.3,55.9,60.9,56.8,52.2,99,83,57,29.89,29.75,9,5,12,0.00
2013-5-11,74.3,63.4,46.9,55.5,38.0,11.4,99,47,10,30.05,29.89,12,7,16,0.01
2013-5-12,73.0,60.9,37.2,35.7,18.2,5.2,82,26,10,30.14,30.01,8,4,12,0.00
2013-5-13,86.9,65.2,44.1,49.1,37.2,25.1,78,44,11,30.06,29.90,11,4,11,0.00
2013-5-14,98.1,77.4,58.3,52.5,42.1,27.9,75,36,10,29.88,29.77,18,8,18,0.00
2013-5-15,94.5,75.3,62.4,64.8,56.7,48.6,96,56,29,29.85,29.75,10,6,10,0.07
2013-5-16,78.1,66.1,60.4,66.3,61.4,57.4,99,86,56,29.81,29.74,11,4,11,0.01
2013-5-17,83.5,70.6,60.6,66.7,61.7,59.2,99,77,45,29.83,29.75,8,2,8,0.00
2013-5-18,90.3,77.2,60.3,71.9,68.2,60.0,99,76,46,29.84,29.71,11,5,15,0.00
2013-5-19,93.9,83.5,67.8,75.9,67.4,58.4,99,63,34,29.76,29.55,12,7,23,0.00
2013-5-20,77.9,69.8,59.5,71.2,66.7,59.3,99,90,74,29.75,29.59,9,5,14,0.35
2013-5-21,77.5,66.8,59.2,64.0,61.0,58.0,99,83,51,29.71,29.52,13,4,13,0.00
2013-5-22,77.4,65.2,55.4,60.4,55.8,51.9,99,75,45,29.81,29.61,16,5,16,0.00
2013-5-23,75.2,63.3,53.2,56.3,54.0,51.7,99,75,46,30.06,29.80,9,4,9,0.00
2013-5-24,79.0,69.9,47.5,55.8,39.6,27.7,99,39,18,30.22,30.06,12,6,17,0.00
2013-5-25,90.0,75.4,51.8,64.2,55.7,45.2,79,52,38,30.11,29.95,6,5,11,0.00
2013-5-26,95.4,81.9,60.4,66.9,62.9,58.8,98,56,31,30.00,29.85,11,5,11,0.00
2013-5-27,88.2,76.4,64.0,69.5,66.9,63.8,99,75,52,29.89,29.69,11,5,15,0.00
2013-10-1,90.0,80.7,70.7,74.7,70.8,65.0,99,74,44,29.88,29.83,6,4,9,0.00
2013-11-9,68.5,58.9,49.1,45.2,43.4,40.6,84,58,40,30.09,29.98,12,4,15,0.00
2013-11-10,67.5,54.0,41.5,41.7,32.2,26.6,81,46,22,30.25,30.11,7,2,11,0.00
2013-11-11,63.5,52.4,31.5,55.3,45.0,31.2,99,78,59,30.31,30.01,18,8,21,0.04
2013-11-12,37.9,29.3,22.8,31.2,19.0,11.6,99,68,35,30.58,30.31,16,9,19,0.00
2013-11-13,54.5,39.0,16.0,22.0,14.1,2.7,92,42,12,30.50,30.17,9,6,12,0.00
2013-11-14,58.1,47.4,26.8,23.7,15.6,-0.8,73,33,10,30.12,29.89,13,7,17,0.00
2013-11-15,60.3,50.0,41.5,50.5,43.8,35.6,99,80,54,29.88,29.72,12,7,16,0.01
2013-11-16,68.7,59.7,50.7,63.2,57.7,50.5,99,94,74,29.73,29.46,19,12,30,0.25
2013-11-17,75.7,63.8,47.3,66.9,40.7,3.5,99,53,11,29.89,29.34,28,13,40,0.14
2013-11-18,59.0,46.8,37.2,40.2,30.3,20.2,91,56,23,30.13,29.88,9,4,11,0.00
2013-11-19,59.9,48.6,34.2,34.7,26.0,18.6,81,44,22,30.13,29.96,12,6,14,0.00
2013-11-20,53.6,46.5,36.7,38.0,32.3,18.1,97,61,35,29.95,29.79,14,8,18,0.09
2013-11-21,52.3,49.7,46.2,52.1,48.4,34.7,99,96,53,30.00,29.86,10,3,10,0.50
2013-11-22,47.7,30.8,29.5,47.4,30.5,29.2,99,99,99,30.35,30.08,12,1,12,0.01
2013-11-23,36.3,28.5,18.1,29.6,18.6,8.9,99,67,47,30.50,30.34,13,7,17,0.00
2013-11-24,29.1,23.8,9.7,15.2,10.9,5.7,97,60,40,30.51,30.19,9,4,10,0.00
2013-11-25,38.5,31.7,28.4,28.7,20.1,8.8,84,63,43,30.19,29.99,8,4,11,0.00
2013-11-26,43.7,33.5,26.8,32.5,26.1,18.3,99,75,56,30.08,29.94,14,7,19,0.00
2013-11-27,34.9,25.3,15.1,14.1,11.6,7.0,86,57,33,30.22,30.10,9,5,13,0.00
2013-11-28,50.2,40.7,21.2,27.4,22.5,14.5,76,49,36,30.23,30.05,15,7,19,0.00
2013-11-29,57.7,43.2,23.5,31.2,28.1,21.8,97,59,30,30.34,30.15,9,4,13,0.00
2013-11-30,62.8,50.2,29.8,43.1,38.7,28.3,95,67,42,30.16,29.93,12,6,17,0.00
2013-12-1,63.9,51.4,33.6,52.8,44.5,33.4,99,79,56,29.97,29.80,5,2,8,0.00
2013-12-2,61.7,48.2,41.9,52.9,45.1,41.5,99,90,58,29.73,29.52,7,3,7,0.00
2013-12-3,61.5,49.6,38.8,54.5,47.8,38.6,99,94,74,29.53,29.44,12,5,12,0.00
2013-12-4,64.0,46.3,31.3,57.2,44.6,31.0,99,94,61,29.76,29.43,19,9,22,0.00
2013-12-5,30.0,21.8,17.2,29.8,19.0,16.0,99,89,75,30.10,29.79,13,6,15,0.00
2013-12-6,19.2,16.0,8.8,18.0,12.7,2.9,99,87,70,30.38,30.08,13,8,14,0.00
2013-12-7,21.9,13.5,4.6,8.0,4.3,0.9,87,67,46,30.46,30.25,9,5,11,0.00
2013-12-8,28.6,23.4,15.6,25.9,22.2,12.7,99,95,87,30.17,29.82,11,4,11,0.00
2013-12-9,26.8,21.9,17.8,26.5,18.9,14.5,99,89,65,30.16,29.95,8,5,8,0.00
2013-12-10,30.9,20.4,9.1,17.4,13.0,7.6,99,76,50,30.17,30.09,17,6,17,0.00
2013-12-11,33.6,20.5,11.1,24.0,11.5,3.9,96,69,48,30.43,30.10,13,4,13,0.00
2013-12-12,41.4,24.9,8.4,22.3,13.3,4.2,85,63,38,30.42,30.08,10,5,13,0.00
2013-12-13,34.3,31.6,21.0,34.1,30.4,16.0,99,96,71,30.07,29.70,9,3,13,0.18
2013-12-14,32.5,30.0,26.1,32.3,29.7,25.8,99,99,99,30.00,29.66,6,0,6,0.01
2013-12-15,42.1,33.8,19.8,35.6,30.0,19.6,99,87,65,30.03,29.90,10,4,13,0.38
2013-12-16,56.8,45.1,34.5,36.7,34.6,32.7,93,68,43,29.98,29.85,11,6,11,0.00
2013-12-17,49.3,36.6,26.2,34.9,28.4,22.7,99,75,40,30.13,29.95,13,4,13,0.00
2013-12-18,56.1,45.1,25.7,39.1,33.0,22.1,91,64,40,30.11,29.77,21,7,21,0.00
2013-12-19,55.9,51.6,45.0,51.0,47.1,39.5,89,85,78,29.77,29.60,13,9,18,0.00
2013-12-20,62.4,44.0,31.1,61.1,43.4,30.9,99,98,89,29.73,29.59,13,6,18,0.00
2013-12-21,32.4,31.6,31.1,32.1,31.4,30.9,99,99,99,29.63,29.36,0,0,0,0.00
2013-12-22,33.6,27.6,23.2,33.4,27.4,22.9,99,99,99,30.14,29.49,0,0,0,0.00
2013-12-23,26.8,18.9,14.5,21.7,17.0,13.3,99,92,73,30.37,30.15,0,0,0,0.01
2013-12-24,33.3,23.0,6.8,21.0,15.9,6.4,99,75,59,30.38,30.09,0,0,0,0.00
2013-12-25,35.4,30.7,24.3,33.4,29.1,19.6,99,94,82,30.18,30.09,11,3,11,0.01
2013-12-26,50.4,40.3,22.8,39.5,28.3,22.3,99,66,34,30.20,30.08,10,5,14,0.01
2013-12-27,59.2,47.9,33.4,33.3,30.5,28.1,84,53,33,30.21,30.10,9,6,13,0.00
2013-12-28,59.2,47.8,33.8,34.4,29.3,25.4,82,51,29,30.11,29.79,10,6,14,0.00
2013-12-29,43.2,24.2,18.7,35.3,20.6,15.2,99,86,73,30.09,29.75,13,8,14,0.00
2013-12-30,34.7,23.6,7.3,17.5,8.2,3.5,87,54,31,30.12,30.02,8,4,11,0.00
2013-12-31,55.4,41.6,18.7,25.6,21.8,15.5,88,48,25,30.18,29.98,12,7,17,0.00
2014-1-1,46.0,38.2,18.9,31.6,28.5,18.6,99,69,52,29.97,29.75,16,5,18,0.00
2014-1-2,20.8,13.0,5.2,17.4,7.1,-1.3,99,78,57,30.27,29.93,13,6,14,0.00